Weather in Iyerusalimskiy

Russia / Samara Oblast     52°47′38″N   49°19′18″E
temp.,
°C
wind,
m/s
gust,
m/s
humid.,
%
clouds,
%
prec.,
mm/h
press.,
hPa
HPBL,
m
2 march, tue
tue201:00−14sw469772 0.0 102184
04:00−14sw599571 0.0 1019163
07:00−12sw7139399 0.0 1015283
10:00−9sw9159499 1.2 1012483
13:00−3wsw101593100 1.2 1009779
16:00−1sw91596100 1.6 1006784
19:00−1sw81496100 1.9 1004694
22:000wsw61198100 2.7 1004495
3 march, wed
wed301:000wnw3698100 0.7 1003287
04:00−3nw2394100 0.8 100346
07:00−5nw3494100 0.0 100371
10:00−6nw489492 0.0 1004278
13:00−3wnw589060 0.0 1005615
16:00−3nw598878 0.1 1005884
19:00−6nw51190100 0.1 1007406
22:00−8wnw5129299 0.1 1009362
4 march, thu
thu401:00−11wnw479476 0.0 101094
04:00−12wsw459346 0.0 101170
07:00−12wsw5109425 0.0 1010166
10:00−9sw6119433 0.0 1010315
13:00−5sw8139298 0.0 1008656
16:00−3sw10169599 0.6 1006768
19:000sw101789100 0.6 1005899
22:000wsw91687100 0.6 1004970
5 march, fri
fri501:00−1sw91786100 0.0 1003739
04:00−2sw81686100 0.0 1002589
07:00−1sw91692100 0.0 1003677
10:00+1wsw81399100 0.3 1004572
13:00−2nnw5898100 1.3 1006346
16:00−2nnw478798 1.6 1009496
19:00−7nnw338960 0.0 101221
22:00−9nne128966 0.0 101421
6 march, sat
sat601:00+1ssw51099100 0.8 1009429
04:00+1ssw71398100 2.8 1005542
07:00+1sw91699100 2.1 1002604
10:00+1sw91699100 2.8 1001654
13:00+2sw815100100 0.8 1001578
16:00−4nw81187100 1.6 1003665
19:00−8wnw359053 0.0 100787
22:00−9wnw349347 0.0 101045